[[{"header":{"parameterUnit":"m.s-1","parameterCategory":1,"la1":30.2991,"la2":30.254,"lo1":-89.0895,"lo2":-89.0444,"dy":0.0017,"dx":0.0017,"nx":28,"ny":28,"refTime":"2024-04-24T09:00:00:Z","depth":0,"parameterNumber":2,"parameterNumberName":"U-component_of_WINDS"},"data":[0,0,0,0,0,0,0,0,0,0,0,0,0,0,0,0,0,0,0,0,0,0,0,0,0,0,0,0,0,0,0,0,0,0,0,0,0,0,0,0,0,0,0,0,0,0,0,0,0,0,0,0,0,0,0,0,0,0,0.7802,0.7803,0,0.7892,0.7893,0.7894,0.792,0.792,0.7919,0.7919,0.8012,0.8015,0.8018,0,0,0,0,0,0,0,0,0,0,0,0,0,0.7655,0.7657,0.7802,0.7803,0.7804,0.7892,0.7893,0.7894,0.792,0.792,0.7919,0.7919,0.8011,0.8015,0.8018,0,0,0,0,0,0,0,0,0,0,0,0,0,0.7729,0.7658,0.7802,0.7828,0.7831,0.7892,0.7893,0.7895,0.7921,0.792,0.7919,0.7919,0.801,0.8014,0.8018,0.806,0,0,0.8032,0.8034,0,0,0,0,0,0,0,0,0.7725,0.7734,0.7823,0.7826,0.783,0.7894,0.7875,0.795,0.7921,0.7887,0.7919,0.7918,0.7973,0.7981,0.7999,0.8064,0.8068,0.8032,0.8035,0.8037,0.8038,0,0,0,0,0,0,0,0.772,0.7731,0.7838,0.7824,0.7829,0.7836,0.7845,0.789,0.7933,0.789,0.7892,0.7902,0.7975,0.7995,0.8002,0.8069,0.8032,0.8036,0.8039,0.804,0.8173,0.8174,0,0,0,0,0,0,0.771,0.7726,0.7835,0.784,0.7775,0.7839,0.785,0.7874,0.7933,0.7941,0.7902,0.7903,0.7988,0.7996,0.8005,0.8057,0.8037,0.8041,0.8043,0.8172,0.8173,0.8174,0,0,0,0,0,0,0.7707,0.7719,0.7831,0.7784,0.7799,0.7842,0.787,0.7877,0.7896,0.7942,0.795,0.7914,0.7988,0.7999,0.8046,0.8061,0.8043,0.8047,0.8171,0.8172,0.8174,0.8161,0,0,0,0,0,0,0.7702,0.7718,0.7734,0.7784,0.7801,0.787,0.787,0.7879,0.7904,0.7905,0.7956,0.7963,0.7988,0.8039,0.805,0.8066,0.805,0.817,0.8172,0.8173,0.8161,0.8162,0.8163,0,0,0,0,0,0.7697,0.7727,0.7734,0.7747,0.7822,0.7871,0.7881,0.7908,0.7905,0.7921,0.7951,0.7962,0.8057,0.8044,0.8056,0.8074,0.8169,0.8171,0.8173,0.816,0.8162,0.8163,0,0,0,0,0,0,0.7678,0.7734,0.7743,0.779,0.7825,0.7875,0.7897,0.7909,0.7946,0.7946,0.7979,0.799,0.8035,0.8059,0.8043,0.8117,0.8114,0.8118,0.8099,0.8101,0.8103,0.8096,0.8054,0,0,0,0,0,0.7679,0.7714,0.7761,0.7798,0.7816,0.7853,0.7876,0.7893,0.7932,0.7947,0.798,0.8017,0.8055,0.808,0.8118,0.8165,0.8176,0.8183,0.8184,0.8185,0.8189,0.8215,0.8219,0.8181,0.8181,0.8181,0,0,0.7681,0.7717,0.7737,0.7795,0.7825,0.786,0.7866,0.7903,0.793,0.7953,0.7999,0.8025,0.8068,0.8115,0.8137,0.8137,0.8202,0.8188,0.8188,0.8191,0.8218,0.8221,0.8225,0.8182,0.8182,0.8182,0,0,0.7705,0.7735,0.7769,0.7798,0.7843,0.7868,0.7876,0.7924,0.7942,0.7989,0.8007,0.8039,0.8105,0.8135,0.8159,0.8194,0.8206,0.8205,0.8212,0.8238,0.8241,0.8244,0.8256,0.826,0.8209,0.8209,0.8209,0,0.7703,0.7757,0.7785,0.7822,0.7847,0.7869,0.7904,0.7931,0.7986,0.8003,0.8002,0.8084,0.8115,0.817,0.8178,0.8197,0.8207,0.82,0.8238,0.8241,0.8244,0.8257,0.8261,0.8209,0.8209,0.8209,0.8209,0,0.7752,0.7789,0.7811,0.7863,0.7891,0.7927,0.7961,0.7986,0.8001,0.8027,0.8074,0.8112,0.8158,0.8172,0.8188,0.8229,0.8227,0.8232,0.8229,0.8247,0.8259,0.8264,0.8208,0.8208,0.8208,0.8208,0,0,0.7765,0.7832,0.784,0.7863,0.7914,0.7944,0.7981,0.8025,0.8046,0.8083,0.8115,0.817,0.8175,0.8202,0.8221,0.8244,0.8269,0.8246,0.8247,0.8248,0.8316,0.8312,0.8317,0.8277,0.8278,0.8279,0.8313,0,0.7794,0.786,0.7887,0.7941,0.7975,0.7997,0.8029,0.8064,0.8089,0.8122,0.815,0.8188,0.8191,0.8208,0.8231,0.8261,0.8283,0.8259,0.8307,0.8309,0.8295,0.8324,0.832,0.8349,0.8318,0.8318,0.8319,0,0.7837,0.7874,0.7931,0.7978,0.7993,0.8022,0.8065,0.8097,0.8137,0.8153,0.8184,0.8202,0.8242,0.8237,0.8292,0.8275,0.8297,0.8314,0.8316,0.8321,0.8314,0.8329,0.836,0.8364,0.8327,0.8326,0.8325,0,0.784,0.7905,0.7947,0.7967,0.8022,0.8042,0.8066,0.8106,0.8131,0.8169,0.8185,0.8228,0.8251,0.8283,0.8313,0.8306,0.8365,0.8363,0.838,0.8379,0.8391,0.839,0.8425,0.8406,0.8406,0.8406,0.8406,0,0.787,0.7904,0.7949,0.7975,0.8014,0.8045,0.8082,0.8108,0.8143,0.8175,0.8197,0.8226,0.8263,0.8298,0.8321,0.8364,0.8374,0.8389,0.8394,0.8386,0.8384,0.8401,0.8399,0.8407,0.8407,0.8406,0.8406,0,0.788,0.7911,0.7959,0.8008,0.8021,0.8047,0.8089,0.8116,0.8141,0.8181,0.8193,0.8233,0.8275,0.8307,0.8362,0.8378,0.8422,0.8429,0.8408,0.8411,0.8427,0.8425,0.8473,0.8481,0.8457,0.8457,0.8457,0,0.7896,0.7923,0.7974,0.7997,0.8021,0.8057,0.8083,0.8114,0.814,0.8188,0.8209,0.8252,0.8288,0.8354,0.8388,0.843,0.8438,0.8452,0.8444,0.8435,0.8437,0.8435,0.8438,0.8452,0.8452,0.8452,0.8453,0,0.7922,0.7936,0.7972,0.8014,0.8044,0.8078,0.8113,0.813,0.8168,0.8197,0.8239,0.8267,0.8322,0.8365,0.841,0.8436,0.8451,0.8455,0.8461,0.8453,0.844,0.8447,0.841,0.8453,0.8453,0.8453,0.8453,0.8453,0.7935,0.796,0.8,0.8039,0.8069,0.8101,0.8128,0.8157,0.8193,0.824,0.8257,0.8301,0.8341,0.8404,0.843,0.8465,0.8466,0.8475,0.8477,0.8479,0.8478,0.8435,0.8473,0.8473,0.8473,0.8473,0.8473,0,0.7962,0.7989,0.8025,0.8073,0.8104,0.8115,0.8154,0.8179,0.8217,0.8254,0.8289,0.8338,0.8379,0.8417,0.8461,0.8481,0.8489,0.8492,0.849,0.8496,0.8474,0.8464,0.8485,0.8485,0.8485,0.8485,0.8484,0.8484,0.7979,0.8021,0.8041,0.8098,0.8125,0.8167,0.8189,0.8219,0.8248,0.8301,0.8336,0.836,0.8397,0.8444,0.8482,0.8493,0.8507,0.8508,0.852,0.8499,0.8497,0.8496,0.8487,0.8511,0.8511,0.8538,0.8539,0.8539]},{"header":{"parameterUnit":"m.s-1","parameterCategory":1,"la1":30.2991,"la2":30.254,"lo1":-89.0895,"lo2":-89.0444,"dy":0.0017,"dx":0.0017,"nx":28,"ny":28,"refTime":"2024-04-24T09:00:00:Z","depth":0,"parameterNumber":3,"parameterNumberName":"V-component_of_WINDS"},"data":[0,0,0,0,0,0,0,0,0,0,0,0,0,0,0,0,0,0,0,0,0,0,0,0,0,0,0,0,0,0,0,0,0,0,0,0,0,0,0,0,0,0,0,0,0,0,0,0,0,0,0,0,0,0,0,0,0,0,0.453,0.4529,0,0.4488,0.4488,0.4487,0.4438,0.4437,0.4436,0.4436,0.4392,0.4392,0.4391,0,0,0,0,0,0,0,0,0,0,0,0,0,0.4565,0.4564,0.453,0.4529,0.4529,0.4488,0.4488,0.4487,0.4438,0.4437,0.4436,0.4435,0.4392,0.4392,0.4391,0,0,0,0,0,0,0,0,0,0,0,0,0,0.4539,0.4564,0.453,0.4499,0.4496,0.4489,0.4488,0.4487,0.4438,0.4437,0.4436,0.4435,0.4392,0.4392,0.4391,0.441,0,0,0.4389,0.4389,0,0,0,0,0,0,0,0,0.4541,0.4538,0.4504,0.4501,0.4498,0.4467,0.4484,0.4461,0.4438,0.446,0.4436,0.4434,0.4418,0.4415,0.441,0.4408,0.4406,0.4389,0.4388,0.4388,0.4388,0,0,0,0,0,0,0,0.4542,0.4539,0.4513,0.4504,0.45,0.4487,0.4482,0.448,0.4446,0.4458,0.4454,0.445,0.4416,0.441,0.4408,0.4405,0.4389,0.4388,0.4388,0.4388,0.4417,0.4418,0,0,0,0,0,0,0.4549,0.4541,0.4514,0.4512,0.4517,0.4487,0.4482,0.4478,0.4446,0.444,0.4451,0.4448,0.4412,0.4409,0.4407,0.4427,0.4388,0.4388,0.4387,0.4416,0.4417,0.4419,0,0,0,0,0,0,0.455,0.4547,0.4516,0.4526,0.4521,0.4488,0.4484,0.4478,0.4472,0.4441,0.4434,0.4452,0.4411,0.4408,0.441,0.4425,0.4387,0.4387,0.4415,0.4416,0.4418,0.4467,0,0,0,0,0,0,0.4551,0.4548,0.4555,0.4526,0.452,0.452,0.4485,0.4478,0.4472,0.4467,0.444,0.4434,0.441,0.4411,0.4409,0.4423,0.4386,0.4413,0.4415,0.4418,0.4464,0.4471,0.4476,0,0,0,0,0,0.4552,0.457,0.4555,0.4552,0.4528,0.4521,0.4518,0.449,0.4473,0.448,0.4459,0.4435,0.4423,0.4412,0.4409,0.4423,0.4412,0.4415,0.4417,0.4462,0.4469,0.4476,0,0,0,0,0,0,0.46,0.4565,0.4549,0.4558,0.4543,0.4513,0.452,0.4499,0.4489,0.4485,0.4451,0.4445,0.4451,0.4437,0.4425,0.444,0.4414,0.4416,0.4449,0.4456,0.4462,0.4465,0.4386,0,0,0,0,0,0.4612,0.4609,0.4579,0.4589,0.4583,0.4553,0.4549,0.4529,0.4512,0.4506,0.4485,0.447,0.4462,0.4458,0.445,0.4462,0.4455,0.4471,0.4476,0.4481,0.4484,0.449,0.4496,0.4427,0.4427,0.4427,0,0,0.4636,0.4616,0.4617,0.4599,0.4585,0.4583,0.4548,0.4547,0.4545,0.4505,0.4506,0.4491,0.4471,0.4479,0.4481,0.4467,0.4501,0.4485,0.4489,0.4489,0.4493,0.4499,0.4505,0.4429,0.4429,0.4429,0,0,0.4678,0.4663,0.4671,0.4658,0.4638,0.4618,0.462,0.4593,0.4582,0.4582,0.4552,0.4549,0.4538,0.4525,0.4517,0.4555,0.4533,0.4554,0.4584,0.459,0.4596,0.46,0.4614,0.462,0.4556,0.4556,0.4556,0,0.471,0.4706,0.4677,0.4678,0.4671,0.4636,0.4643,0.4631,0.461,0.4605,0.4591,0.4576,0.456,0.4564,0.4573,0.4568,0.4569,0.4556,0.4597,0.4602,0.4606,0.4618,0.4624,0.4559,0.4558,0.4558,0.4558,0,0.4747,0.4744,0.4753,0.4733,0.4727,0.4731,0.4703,0.47,0.4681,0.4663,0.4664,0.4644,0.4631,0.463,0.4611,0.4632,0.4624,0.4604,0.4577,0.4615,0.4627,0.4632,0.4563,0.4562,0.4561,0.456,0,0,0.4818,0.4783,0.4786,0.4777,0.4753,0.475,0.4753,0.4741,0.4739,0.4725,0.4727,0.4718,0.4699,0.469,0.467,0.4675,0.4707,0.4654,0.4653,0.4665,0.4729,0.4744,0.4751,0.4692,0.4693,0.4694,0.4731,0,0.4856,0.4859,0.4833,0.4843,0.484,0.4807,0.4809,0.4794,0.4778,0.4773,0.4754,0.4748,0.4724,0.4719,0.4722,0.4703,0.472,0.4699,0.4693,0.4693,0.4699,0.4757,0.4773,0.4809,0.4735,0.4736,0.4736,0,0.49,0.489,0.49,0.4875,0.4873,0.4876,0.4863,0.4859,0.4842,0.4829,0.482,0.4796,0.4797,0.4772,0.4773,0.476,0.4755,0.4745,0.4746,0.4744,0.4717,0.4757,0.482,0.4825,0.4743,0.4743,0.4742,0,0.4951,0.4939,0.4944,0.4937,0.4909,0.4912,0.49,0.4881,0.4876,0.4865,0.4861,0.485,0.4844,0.4835,0.4809,0.4794,0.4813,0.4786,0.4802,0.4803,0.4808,0.4808,0.4871,0.4805,0.4805,0.4805,0.4805,0,0.4996,0.5004,0.4967,0.4969,0.4977,0.4947,0.4955,0.494,0.4924,0.4923,0.4893,0.4893,0.4859,0.4855,0.4834,0.4838,0.4835,0.4825,0.482,0.4828,0.4829,0.4824,0.4821,0.4806,0.4806,0.4806,0.4806,0,0.5054,0.503,0.5033,0.5006,0.4999,0.5006,0.4983,0.4984,0.4966,0.4965,0.4963,0.4935,0.4928,0.4902,0.4889,0.4875,0.4886,0.4875,0.4892,0.4888,0.4906,0.4905,0.4969,0.4976,0.4906,0.4906,0.4907,0,0.5085,0.509,0.5064,0.5062,0.5051,0.5048,0.5042,0.5013,0.5009,0.499,0.4994,0.4985,0.4977,0.4968,0.4946,0.4936,0.4925,0.4948,0.4923,0.4931,0.4925,0.4925,0.4926,0.4953,0.4954,0.4955,0.4955,0,0.5141,0.5129,0.5123,0.5113,0.5107,0.5098,0.5086,0.5086,0.5053,0.505,0.5044,0.5037,0.5025,0.5017,0.5003,0.499,0.4968,0.4963,0.4967,0.4975,0.4985,0.498,0.4906,0.4962,0.4961,0.4961,0.496,0.496,0.5187,0.519,0.5172,0.5166,0.5155,0.5145,0.5145,0.5127,0.5122,0.511,0.5093,0.5089,0.5071,0.5051,0.504,0.5036,0.5023,0.5028,0.5029,0.5031,0.5035,0.4986,0.5034,0.5033,0.5033,0.5033,0.5033,0,0.5242,0.5229,0.5224,0.5209,0.5205,0.5185,0.5171,0.5168,0.5165,0.5151,0.5144,0.5137,0.5129,0.5107,0.5096,0.5098,0.5087,0.5096,0.5096,0.5093,0.5047,0.5046,0.5105,0.5105,0.5105,0.5105,0.5105,0.5105,0.527,0.5275,0.5261,0.5259,0.5246,0.5242,0.5236,0.5227,0.5216,0.521,0.5203,0.5189,0.5171,0.516,0.5152,0.5145,0.5143,0.5155,0.5146,0.5103,0.5096,0.509,0.5088,0.5155,0.5155,0.5192,0.5192,0.5192]}]]